#timestamp,LO_Frequency,Hit 
1504054815.2,286047009.2,N
1504054835.9,286047009.2,N
1504054855.3,286047008.7,N
1504054875.1,286047008.5,N
1504054895.8,286047008.6,N
1504054915.7,286047006.3,N
1504054935.5,286047009.5,N
1504054955.3,286047006.6,N
1504054975.2,286047004.6,N
1504054995.0,286047003.1,N
1504054995.9,286047003.1,N
1504055015.7,286047005.2,N
1504055035.6,286047008.7,P
1504055055.4,286047000.6,N
1504055075.2,286047001.2,N
1504055095.1,286047001.1,N
1504055096.0,286047001.1,N
1504055115.8,286047000.3,N
1504055135.6,286047000.0,N
1504055155.5,286046998.9,N
1504055175.3,286047001.9,N
1504055195.1,286047002.2,N
1504055215.9,286047002.0,N
1504055235.7,286047001.8,N
1504055255.5,286047003.9,N
1504055275.4,286047002.4,N
1504055295.2,286047003.2,N
1504055315.0,286047001.4,N
1504055315.9,286047001.4,N
1504055335.8,286047004.8,N
1504055355.6,286047005.4,N
1504055375.4,286047002.9,N
1504055395.3,286047007.6,P
1504055415.1,286047003.6,N
1504055416.0,286047003.6,N
1504055435.8,286047004.1,N
1504055455.7,286047002.9,N
1504055475.5,286047001.9,N
1504055495.3,286047002.3,N
1504055515.2,286047002.0,N
1504055535.9,286047002.6,N
1504055555.7,286047004.4,N
1504055575.5,286047004.3,N
1504055595.4,286047003.0,N
1504055615.2,286047005.9,P
1504055635.1,286046998.9,N
1504055636.0,286046998.9,N
1504055655.8,286047001.2,N
1504055675.6,286046998.6,N
1504055695.4,286046996.9,N
1504055715.3,286046997.2,N
1504055735.1,286046997.7,N
1504055755.8,286046998.0,N
1504055775.7,286046998.7,N
1504055795.5,286046999.3,N
1504055815.3,286046996.5,N
1504055835.2,286046995.9,N
1504055855.9,286046996.3,N
1504055875.7,286046994.9,N
1504055895.6,286046999.5,N
1504055915.4,286046996.7,N
1504055935.2,286047002.3,N
1504055955.1,286047000.2,N
1504055956.0,286047000.2,N
1504055975.8,286046998.1,N
1504055995.6,286047001.1,N
1504056015.5,286046998.6,N
1504056035.3,286046998.4,N
1504056055.1,286047001.2,N
1504056075.8,286046998.9,N
1504056095.7,286046998.8,N
1504056115.5,286046998.8,N
1504056135.3,286047000.7,N
1504056155.2,286046998.8,N
1504056175.0,286046997.1,N
1504056175.9,286046997.1,N
1504056195.7,286046996.8,N
1504056215.6,286046996.7,N
1504056235.4,286046997.0,N
1504056255.2,286046997.0,N
1504056275.1,286046999.6,N
1504056276.0,286046999.6,N
1504056295.8,286046994.9,N
1504056315.6,286046995.1,N
1504056335.5,286046999.3,N
1504056355.3,286047000.8,N
1504056375.1,286047000.8,N
1504056395.9,286047000.5,N
1504056415.7,286046998.8,N
1504056435.5,286046999.5,N
1504056455.4,286046998.9,N
1504056475.2,286047001.2,N
1504056495.0,286046997.1,N
1504056495.9,286046997.1,N
1504056515.8,286046995.1,N
1504056535.6,286046995.6,N
1504056555.4,286046997.6,N
1504056575.2,286046997.8,N
1504056595.1,286046994.9,N
1504056596.0,286046994.9,N
1504056615.8,286046995.8,N
1504056635.6,286046995.1,N
1504056655.5,286046995.8,N
1504056675.3,286046995.5,N
1504056695.1,286046995.7,N
1504056715.9,286046991.9,P
1504056735.7,286046995.7,N
1504056755.5,286046995.8,N
1504056775.4,286046996.3,N
1504056795.2,286046994.3,P
1504056815.0,286046998.7,N
1504056816.0,286046998.7,N
1504056835.8,286047000.1,N
1504056855.6,286046999.7,N
1504056875.4,286047001.6,N
1504056895.3,286047000.5,N
1504056915.1,286046998.5,N
1504056935.8,286047000.0,N
1504056955.7,286046999.9,N
1504056975.5,286046999.7,N
1504056995.3,286047004.1,N
1504057015.2,286047004.5,N
1504057035.9,286047008.0,P
1504057055.7,286047008.7,N
1504057075.6,286047009.0,N
1504057095.4,286047004.7,N
1504057115.2,286047004.9,N
1504057135.1,286047006.3,N
1504057136.0,286047006.3,N
1504057155.8,286047009.1,P
1504057175.6,286047009.2,P
1504057195.5,286047006.7,P
1504057215.3,286047004.7,P
1504057235.2,286046995.2,P
1504057255.9,286046997.9,N
1504057275.7,286046993.5,N
1504057295.5,286046991.7,N
1504057315.4,286046990.6,N
1504057335.2,286046992.7,N
1504057355.0,286046993.4,N
1504057355.9,286046993.4,N
1504057375.8,286046995.6,N
1504057395.6,286046992.3,N
1504057415.4,286046991.9,N
1504057435.3,286046994.3,N
1504057455.1,286046992.3,N
1504057475.8,286046994.4,N
1504057495.7,286046993.5,N
1504057515.5,286046994.6,N
1504057535.3,286046993.4,N
1504057555.2,286046994.1,N
1504057575.9,286046995.4,N
1504057595.7,286046999.0,N
1504057615.6,286046998.5,N
1504057635.4,286046999.5,N
1504057655.2,286046996.1,N
1504057675.0,286046994.3,N
1504057676.0,286046994.3,N
1504057695.8,286046994.1,N
1504057715.6,286046990.9,N
1504057735.4,286046996.1,N
1504057755.3,286046996.0,N
1504057775.1,286046995.0,N
1504057795.8,286046997.0,N
1504057815.7,286046995.6,N
1504057835.5,286046994.6,N
1504057855.3,286046996.2,N
1504057875.2,286046994.6,N
1504057895.9,286046994.8,N
1504057915.7,286046997.0,N
1504057935.6,286046997.5,N
1504057955.4,286046995.4,N
1504057975.2,286046997.9,N
1504057995.1,286046996.1,N
1504057996.0,286046996.1,N
1504058015.8,286046998.4,N
1504058035.6,286046997.9,N
1504058055.5,286046999.9,N
1504058075.3,286047000.2,N
1504058095.1,286047001.9,N
1504058115.8,286047001.3,N
1504058135.7,286046998.2,N
1504058155.5,286046999.9,N
1504058175.3,286046999.5,N
1504058195.2,286046996.5,N
1504058215.0,286046995.1,N
1504058215.9,286046995.1,N
1504058235.7,286046995.3,N
1504058255.6,286046997.2,N
1504058275.4,286046997.4,N
1504058295.2,286046995.2,N
1504058315.1,286046995.2,N
1504058316.0,286046995.2,N
1504058335.8,286046996.2,N
1504058355.6,286046996.2,N
1504058375.5,286046993.3,P
1504058395.3,286046997.6,N
